Star Princess — ZCDD6 — position and weather

sailwx.info

Track history (hours):
 
Tides and Currents Weather Stations Pressure Air Temp Water Temp Dewpoint Dewpoint Depression Visibility Wind Speed Wind Dir Waves Ship Positions

Star Princess

Operator: Princess Cruises

Last reported at 2017-Aug-16 11:00 UTC. Time now 2017-Aug-16 21:37 UTC.
Position N 59°12' W 135°18'.

Length 289.6 m; beam 36 m; draft 8.4 m.

Type: Ship. MMSI: 310361000.

Wind from 160 at 11 knots

Barometer 1008.5 mb
Air temperature 10.3 ° C
Visibility: greater than 10.8 NM
Dewpoint 8.3 ° C
Water temperature 12.4 ° C

Date/timePositionNaut miles runAvg speedWind from/ knotsBaromVisibWave heightAir tempDewpointWater temp
2017-Aug-16 11:00N 59°12' W 135°18'119 4.8 160 / 111008.510.8 10.3 8.312.4
2017-Aug-15 10:00N 57°24' W 133°42'13612.3 170 / 371012.010.8 12.310.613.5
2017-Aug-14 23:00N 55°24' W 131°48'38 3.2 130 / 281019.110.8 16.512.514.2
2017-Aug-14 11:00N 54°54' W 131°06'19216.0 160 / 281014.0 5.4 13.411.312.5
2017-Aug-13 23:00N 51°54' W 129°12'937.4 190 / 231013.9 5.4 15.311.814.5
2017-Aug-13 22:45N 52°02' W 129°19'416.4
2017-Aug-13 22:30N 51°58' W 129°15'816.5
2017-Aug-13 22:00N 51°52' W 129°07'816.2
2017-Aug-13 21:31N 51°45' W 128°59'816.3
2017-Aug-13 21:00N 51°39' W 128°51'815.8
2017-Aug-13 20:30N 51°32' W 128°44'816.5
2017-Aug-13 20:00N 51°26' W 128°36'816.4
2017-Aug-13 19:31N 51°19' W 128°28'816.0
2017-Aug-13 19:01N 51°13' W 128°20'816.3
2017-Aug-13 18:30N 51°08' W 128°09'816.5
2017-Aug-13 18:01N 51°04' W 127°58'816.4
2017-Aug-13 17:31N 50°59' W 127°48'714.4
2017-Aug-13 17:00N 50°55' W 127°39'1019.0
2017-Aug-13 16:30N 50°50' W 127°26'918.5
2017-Aug-13 16:00N 50°46' W 127°12'918.3
2017-Aug-13 15:30N 50°43' W 126°59'917.2
2017-Aug-13 14:59N 50°38' W 126°47'914.3
2017-Aug-13 14:23N 50°31' W 126°38'513.0
2017-Aug-13 13:59N 50°30' W 126°30'3016.6
2017-Aug-13 12:12N 50°22' W 125°45'617.4
2017-Aug-13 11:52N 50°23' W 125°36'615.9
2017-Aug-13 11:28N 50°20' W 125°27'715.8
2017-Aug-13 11:00N 50°13' W 125°23'713.3
2017-Aug-13 10:30N 50°07' W 125°20'611.5
2017-Aug-13 10:00N 50°03' W 125°14'611.2
2017-Aug-13 09:30N 49°58' W 125°10'612.5
2017-Aug-13 09:00N 49°53' W 125°03'510.0
2017-Aug-13 08:31N 49°50' W 124°57'510.8
2017-Aug-13 08:00N 49°46' W 124°51'611.9
2017-Aug-13 07:30N 49°42' W 124°45'612.0
2017-Aug-13 07:00N 49°37' W 124°39'611.6
2017-Aug-13 06:30N 49°33' W 124°33'611.8
2017-Aug-13 06:01N 49°28' W 124°27'612.0
2017-Aug-13 05:31N 49°25' W 124°20'611.7
2017-Aug-13 05:01N 49°24' W 124°11'611.8
2017-Aug-13 04:31N 49°23' W 124°02'611.8
2017-Aug-13 04:01N 49°22' W 123°53'611.8
2017-Aug-13 03:30N 49°21' W 123°44'611.8
2017-Aug-13 03:00N 49°20' W 123°35'612.6
2017-Aug-13 02:31N 49°19' W 123°25'612.4
2017-Aug-13 02:01N 49°19' W 123°16'611.5
2017-Aug-13 01:30N 49°18' W 123°07'1 2.1
2017-Aug-13 00:57N 49°17' W 123°06'0 0.0
2017-Aug-13 00:30N 49°17' W 123°06'0 0.0
2017-Aug-13 00:00N 49°17' W 123°06'0 0.0
2017-Aug-12 23:27N 49°17' W 123°06'0 0.0
2017-Aug-12 23:00N 49°17' W 123°06'0 0.0
2017-Aug-12 22:30N 49°17' W 123°06'0 0.0
2017-Aug-12 21:56N 49°17' W 123°06'0 0.0
2017-Aug-12 21:29N 49°17' W 123°06'0 0.0
2017-Aug-12 20:56N 49°17' W 123°06'0 0.0
2017-Aug-12 20:23N 49°17' W 123°06'0 0.0
2017-Aug-12 19:55N 49°17' W 123°06'0 0.0
2017-Aug-12 19:25N 49°17' W 123°06'0 0.0
2017-Aug-12 18:49N 49°17' W 123°06'0 0.0
2017-Aug-12 18:28N 49°17' W 123°06'0 0.0
2017-Aug-12 17:58N 49°17' W 123°06'0 0.0
2017-Aug-12 17:30N 49°17' W 123°06'0 0.0
2017-Aug-12 16:54N 49°17' W 123°06'0 0.0
2017-Aug-12 16:30N 49°17' W 123°06'0 0.0
2017-Aug-12 16:00N 49°17' W 123°06'0 0.0
2017-Aug-12 15:30N 49°17' W 123°06'0 0.0
2017-Aug-12 14:59N 49°17' W 123°06'0 0.0
2017-Aug-12 14:29N 49°17' W 123°06'0 0.0
2017-Aug-12 14:00N 49°17' W 123°06'0 0.4
2017-Aug-12 13:31N 49°17' W 123°06'3 5.7
2017-Aug-12 13:00N 49°19' W 123°10'510.5
2017-Aug-12 12:31N 49°18' W 123°18'510.5
2017-Aug-12 12:01N 49°19' W 123°26'510.7
2017-Aug-12 11:31N 49°19' W 123°34'510.9
2017-Aug-12 11:00N 49°19' W 123°42'54137484.5
2017-Aug-12 11:00N 40°18' W 123°48'5431123.6 260 / 261011.9 5.4 18.316.521.3
2017-Aug-12 10:31N 49°21' W 123°50'510.9
2017-Aug-12 10:01N 49°22' W 123°59'510.7
2017-Aug-12 09:31N 49°23' W 124°07'611.0
2017-Aug-12 09:01N 49°25' W 124°15'611.5
2017-Aug-12 08:31N 49°27' W 124°23'611.4
2017-Aug-12 08:00N 49°31' W 124°30'611.3
2017-Aug-12 07:30N 49°35' W 124°36'611.5
2017-Aug-12 07:01N 49°39' W 124°42'611.6
2017-Aug-12 06:30N 49°43' W 124°47'611.3
2017-Aug-12 06:00N 49°47' W 124°54'611.5
2017-Aug-12 05:31N 49°51' W 125°00'612.0
2017-Aug-12 05:00N 49°56' W 125°07'612.4
2017-Aug-12 04:30N 50°01' W 125°13'612.1
2017-Aug-12 04:00N 50°06' W 125°17'611.2
2017-Aug-12 03:31N 50°11' W 125°22'612.4
2017-Aug-12 03:00N 50°17' W 125°24'510.4
2017-Aug-12 02:30N 50°21' W 125°29'713.6
2017-Aug-12 02:00N 50°22' W 125°40'714.4
2017-Aug-12 01:30N 50°23' W 125°51'916.7
2017-Aug-12 00:57N 50°27' W 126°04'1317.1
2017-Aug-12 00:11N 50°30' W 126°24'318.0
2017-Aug-12 00:00N 50°30' W 126°29'814.2
2017-Aug-11 23:26N 50°33' W 126°41'715.4
2017-Aug-11 22:59N 50°38' W 126°48'918.0
2017-Aug-11 22:30N 50°43' W 127°00'917.8
2017-Aug-11 22:00N 50°46' W 127°13'917.9
2017-Aug-11 21:31N 50°50' W 127°26'917.4
2017-Aug-11 21:01N 50°54' W 127°38'817.0
2017-Aug-11 20:31N 50°59' W 127°48'612.4
2017-Aug-11 20:00N 51°03' W 127°57'713.5
2017-Aug-11 19:30N 51°07' W 128°06'613.0
2017-Aug-11 19:00N 51°10' W 128°14'612.7
2017-Aug-11 18:30N 51°14' W 128°22'612.7
2017-Aug-11 18:00N 51°19' W 128°29'713.0
2017-Aug-11 17:30N 51°24' W 128°35'714.9
2017-Aug-11 17:00N 51°30' W 128°42'815.4
2017-Aug-11 16:31N 51°37' W 128°49'611.2
2017-Aug-11 16:01N 51°41' W 128°54'713.1
2017-Aug-11 15:31N 51°46' W 129°01'713.6
2017-Aug-11 15:00N 51°52' W 129°07'511.1
2017-Aug-11 14:31N 51°56' W 129°13'1514.7
2017-Aug-11 13:30N 52°08' W 129°27'816.1
2017-Aug-11 13:00N 52°15' W 129°34'917.3
2017-Aug-11 12:30N 52°22' W 129°42'816.9
2017-Aug-11 12:00N 52°29' W 129°49'917.8
2017-Aug-11 11:30N 52°37' W 129°57'1018.0
2017-Aug-11 10:58N 52°45' W 130°06'817.6
2017-Aug-11 10:30N 52°52' W 130°13'1019.1
2017-Aug-11 10:00N 52°60' W 130°22'1019.6
2017-Aug-11 09:30N 53°08' W 130°30'196 9.1
2017-Aug-10 12:00N 56°12' W 132°30'380 7.6 330 / 221016.0 5.4 12.410.1 9.1
2017-Aug-08 10:00N 50°06' W 135°18'48599.4 160 / 41022.8 5.4 15.312.214.3
2017-Aug-08 05:07N 58°11' W 135°21'512.5
2017-Aug-08 04:43N 58°13' W 135°29'412.5
2017-Aug-08 04:24N 58°15' W 135°36'512.6
2017-Aug-08 04:00N 58°17' W 135°44'612.6
2017-Aug-08 03:30N 58°20' W 135°56'713.6
2017-Aug-08 03:00N 58°26' W 135°59'714.7
2017-Aug-08 02:30N 58°33' W 136°04'510.3
2017-Aug-08 02:00N 58°38' W 136°03'3 5.6
2017-Aug-08 01:30N 58°41' W 136°06'815.2
2017-Aug-08 01:00N 58°45' W 136°18'2110.3
2017-Aug-07 23:00N 58°54' W 136°54'19 4.6 140 / 161022.9 5.4 14.3 8.3 7.3
2017-Aug-07 18:49N 58°46' W 136°20'514.8
2017-Aug-07 18:30N 58°43' W 136°13'714.0
2017-Aug-07 18:00N 58°38' W 136°03'3 7.0
2017-Aug-07 17:30N 58°35' W 136°03'816.4
2017-Aug-07 17:00N 58°27' W 136°01'5 9.0
2017-Aug-07 16:31N 58°23' W 135°58'612.7
2017-Aug-07 16:00N 58°19' W 136°09'49 9.8
2017-Aug-07 11:00N 58°18' W 137°42'38215.9 330 / 151018.8 5.4 14.212.416.5
2017-Aug-06 11:00N 59°54' W 149°42'   020 / 411013.4 5.4 15.813.516.0
Track history (hours):
 
Tides and Currents Weather Stations Pressure Air Temp Water Temp Dewpoint Dewpoint Depression Visibility Wind Speed Wind Dir Waves Ship Positions

Star Princess

Operator: Princess Cruises

Last reported at 2017-Aug-16 11:00 UTC. Time now 2017-Aug-16 21:37 UTC.
Position N 59°12' W 135°18'.

Length 289.6 m; beam 36 m; draft 8.4 m.

Type: Ship. MMSI: 310361000.

Wind from 160 at 11 knots

Barometer 1008.5 mb
Air temperature 10.3 ° C
Visibility: greater than 10.8 NM
Dewpoint 8.3 ° C
Water temperature 12.4 ° C

Date/timePositionNaut miles runAvg speedWind from/ knotsBaromVisibWave heightAir tempDewpointWater temp
2017-Aug-16 11:00N 59°12' W 135°18'119 4.8 160 / 111008.510.8 10.3 8.312.4
2017-Aug-15 10:00N 57°24' W 133°42'13612.3 170 / 371012.010.8 12.310.613.5
2017-Aug-14 23:00N 55°24' W 131°48'38 3.2 130 / 281019.110.8 16.512.514.2
2017-Aug-14 11:00N 54°54' W 131°06'19216.0 160 / 281014.0 5.4 13.411.312.5
2017-Aug-13 23:00N 51°54' W 129°12'937.4 190 / 231013.9 5.4 15.311.814.5
2017-Aug-13 22:45N 52°02' W 129°19'416.4
2017-Aug-13 22:30N 51°58' W 129°15'816.5
2017-Aug-13 22:00N 51°52' W 129°07'816.2
2017-Aug-13 21:31N 51°45' W 128°59'816.3
2017-Aug-13 21:00N 51°39' W 128°51'815.8
2017-Aug-13 20:30N 51°32' W 128°44'816.5
2017-Aug-13 20:00N 51°26' W 128°36'816.4
2017-Aug-13 19:31N 51°19' W 128°28'816.0
2017-Aug-13 19:01N 51°13' W 128°20'816.3
2017-Aug-13 18:30N 51°08' W 128°09'816.5
2017-Aug-13 18:01N 51°04' W 127°58'816.4
2017-Aug-13 17:31N 50°59' W 127°48'714.4
2017-Aug-13 17:00N 50°55' W 127°39'1019.0
2017-Aug-13 16:30N 50°50' W 127°26'918.5
2017-Aug-13 16:00N 50°46' W 127°12'918.3
2017-Aug-13 15:30N 50°43' W 126°59'917.2
2017-Aug-13 14:59N 50°38' W 126°47'914.3
2017-Aug-13 14:23N 50°31' W 126°38'513.0
2017-Aug-13 13:59N 50°30' W 126°30'3016.6
2017-Aug-13 12:12N 50°22' W 125°45'617.4
2017-Aug-13 11:52N 50°23' W 125°36'615.9
2017-Aug-13 11:28N 50°20' W 125°27'715.8
2017-Aug-13 11:00N 50°13' W 125°23'713.3
2017-Aug-13 10:30N 50°07' W 125°20'611.5
2017-Aug-13 10:00N 50°03' W 125°14'611.2
2017-Aug-13 09:30N 49°58' W 125°10'612.5
2017-Aug-13 09:00N 49°53' W 125°03'510.0
2017-Aug-13 08:31N 49°50' W 124°57'510.8
2017-Aug-13 08:00N 49°46' W 124°51'611.9
2017-Aug-13 07:30N 49°42' W 124°45'612.0
2017-Aug-13 07:00N 49°37' W 124°39'611.6
2017-Aug-13 06:30N 49°33' W 124°33'611.8
2017-Aug-13 06:01N 49°28' W 124°27'612.0
2017-Aug-13 05:31N 49°25' W 124°20'611.7
2017-Aug-13 05:01N 49°24' W 124°11'611.8
2017-Aug-13 04:31N 49°23' W 124°02'611.8
2017-Aug-13 04:01N 49°22' W 123°53'611.8
2017-Aug-13 03:30N 49°21' W 123°44'611.8
2017-Aug-13 03:00N 49°20' W 123°35'612.6
2017-Aug-13 02:31N 49°19' W 123°25'612.4
2017-Aug-13 02:01N 49°19' W 123°16'611.5
2017-Aug-13 01:30N 49°18' W 123°07'1 2.1
2017-Aug-13 00:57N 49°17' W 123°06'0 0.0
2017-Aug-13 00:30N 49°17' W 123°06'0 0.0
2017-Aug-13 00:00N 49°17' W 123°06'0 0.0
2017-Aug-12 23:27N 49°17' W 123°06'0 0.0
2017-Aug-12 23:00N 49°17' W 123°06'0 0.0
2017-Aug-12 22:30N 49°17' W 123°06'0 0.0
2017-Aug-12 21:56N 49°17' W 123°06'0 0.0
2017-Aug-12 21:29N 49°17' W 123°06'0 0.0
2017-Aug-12 20:56N 49°17' W 123°06'0 0.0
2017-Aug-12 20:23N 49°17' W 123°06'0 0.0
2017-Aug-12 19:55N 49°17' W 123°06'0 0.0
2017-Aug-12 19:25N 49°17' W 123°06'0 0.0
2017-Aug-12 18:49N 49°17' W 123°06'0 0.0
2017-Aug-12 18:28N 49°17' W 123°06'0 0.0
2017-Aug-12 17:58N 49°17' W 123°06'0 0.0
2017-Aug-12 17:30N 49°17' W 123°06'0 0.0
2017-Aug-12 16:54N 49°17' W 123°06'0 0.0
2017-Aug-12 16:30N 49°17' W 123°06'0 0.0
2017-Aug-12 16:00N 49°17' W 123°06'0 0.0
2017-Aug-12 15:30N 49°17' W 123°06'0 0.0
2017-Aug-12 14:59N 49°17' W 123°06'0 0.0
2017-Aug-12 14:29N 49°17' W 123°06'0 0.0
2017-Aug-12 14:00N 49°17' W 123°06'0 0.4
2017-Aug-12 13:31N 49°17' W 123°06'3 5.7
2017-Aug-12 13:00N 49°19' W 123°10'510.5
2017-Aug-12 12:31N 49°18' W 123°18'510.5
2017-Aug-12 12:01N 49°19' W 123°26'510.7
2017-Aug-12 11:31N 49°19' W 123°34'510.9
2017-Aug-12 11:00N 49°19' W 123°42'54137484.5
2017-Aug-12 11:00N 40°18' W 123°48'5431123.6 260 / 261011.9 5.4 18.316.521.3
2017-Aug-12 10:31N 49°21' W 123°50'510.9
2017-Aug-12 10:01N 49°22' W 123°59'510.7
2017-Aug-12 09:31N 49°23' W 124°07'611.0
2017-Aug-12 09:01N 49°25' W 124°15'611.5
2017-Aug-12 08:31N 49°27' W 124°23'611.4
2017-Aug-12 08:00N 49°31' W 124°30'611.3
2017-Aug-12 07:30N 49°35' W 124°36'611.5
2017-Aug-12 07:01N 49°39' W 124°42'611.6
2017-Aug-12 06:30N 49°43' W 124°47'611.3
2017-Aug-12 06:00N 49°47' W 124°54'611.5
2017-Aug-12 05:31N 49°51' W 125°00'612.0
2017-Aug-12 05:00N 49°56' W 125°07'612.4
2017-Aug-12 04:30N 50°01' W 125°13'612.1
2017-Aug-12 04:00N 50°06' W 125°17'611.2
2017-Aug-12 03:31N 50°11' W 125°22'612.4
2017-Aug-12 03:00N 50°17' W 125°24'510.4
2017-Aug-12 02:30N 50°21' W 125°29'713.6
2017-Aug-12 02:00N 50°22' W 125°40'714.4
2017-Aug-12 01:30N 50°23' W 125°51'916.7
2017-Aug-12 00:57N 50°27' W 126°04'1317.1
2017-Aug-12 00:11N 50°30' W 126°24'318.0
2017-Aug-12 00:00N 50°30' W 126°29'814.2
2017-Aug-11 23:26N 50°33' W 126°41'715.4
2017-Aug-11 22:59N 50°38' W 126°48'918.0
2017-Aug-11 22:30N 50°43' W 127°00'917.8
2017-Aug-11 22:00N 50°46' W 127°13'917.9
2017-Aug-11 21:31N 50°50' W 127°26'917.4
2017-Aug-11 21:01N 50°54' W 127°38'817.0
2017-Aug-11 20:31N 50°59' W 127°48'612.4
2017-Aug-11 20:00N 51°03' W 127°57'713.5
2017-Aug-11 19:30N 51°07' W 128°06'613.0
2017-Aug-11 19:00N 51°10' W 128°14'612.7
2017-Aug-11 18:30N 51°14' W 128°22'612.7
2017-Aug-11 18:00N 51°19' W 128°29'713.0
2017-Aug-11 17:30N 51°24' W 128°35'714.9
2017-Aug-11 17:00N 51°30' W 128°42'815.4
2017-Aug-11 16:31N 51°37' W 128°49'611.2
2017-Aug-11 16:01N 51°41' W 128°54'713.1
2017-Aug-11 15:31N 51°46' W 129°01'713.6
2017-Aug-11 15:00N 51°52' W 129°07'511.1
2017-Aug-11 14:31N 51°56' W 129°13'1514.7
2017-Aug-11 13:30N 52°08' W 129°27'816.1
2017-Aug-11 13:00N 52°15' W 129°34'917.3
2017-Aug-11 12:30N 52°22' W 129°42'816.9
2017-Aug-11 12:00N 52°29' W 129°49'917.8
2017-Aug-11 11:30N 52°37' W 129°57'1018.0
2017-Aug-11 10:58N 52°45' W 130°06'817.6
2017-Aug-11 10:30N 52°52' W 130°13'1019.1
2017-Aug-11 10:00N 52°60' W 130°22'1019.6
2017-Aug-11 09:30N 53°08' W 130°30'196 9.1
2017-Aug-10 12:00N 56°12' W 132°30'380 7.6 330 / 221016.0 5.4 12.410.1 9.1
2017-Aug-08 10:00N 50°06' W 135°18'48599.4 160 / 41022.8 5.4 15.312.214.3
2017-Aug-08 05:07N 58°11' W 135°21'512.5
2017-Aug-08 04:43N 58°13' W 135°29'412.5
2017-Aug-08 04:24N 58°15' W 135°36'512.6
2017-Aug-08 04:00N 58°17' W 135°44'612.6
2017-Aug-08 03:30N 58°20' W 135°56'713.6
2017-Aug-08 03:00N 58°26' W 135°59'714.7
2017-Aug-08 02:30N 58°33' W 136°04'510.3
2017-Aug-08 02:00N 58°38' W 136°03'3 5.6
2017-Aug-08 01:30N 58°41' W 136°06'815.2
2017-Aug-08 01:00N 58°45' W 136°18'2110.3
2017-Aug-07 23:00N 58°54' W 136°54'19 4.6 140 / 161022.9 5.4 14.3 8.3 7.3
2017-Aug-07 18:49N 58°46' W 136°20'514.8
2017-Aug-07 18:30N 58°43' W 136°13'714.0
2017-Aug-07 18:00N 58°38' W 136°03'3 7.0
2017-Aug-07 17:30N 58°35' W 136°03'816.4
2017-Aug-07 17:00N 58°27' W 136°01'5 9.0
2017-Aug-07 16:31N 58°23' W 135°58'612.7
2017-Aug-07 16:00N 58°19' W 136°09'49 9.8
2017-Aug-07 11:00N 58°18' W 137°42'38215.9 330 / 151018.8 5.4 14.212.416.5
2017-Aug-06 11:00N 59°54' W 149°42'   020 / 411013.4 5.4 15.813.516.0

Dump ship's entire track history